Weather History for La Crosse, WI

Change the Weather History Date:

Monday, September 23, 2013

  Actual Average Record
Temperature  
Mean Temperature 62 °F 60 °F  
Max Temperature 73 °F 70 °F 91 °F (1891)
Min Temperature 50 °F 49 °F 31 °F (1974)
Degree Days  
Heating Degree Days 3 7  
Month to date heating degree days 56 82  
Since 1 July heating degree days 70 102  
Cooling Degree Days 0 1  
Month to date cooling degree days 123 67  
Year to date cooling degree days 908 767  
Growing Degree Days 11 (Base 50)    
Moisture  
Dew Point 48 °F    
Average Humidity 65    
Maximum Humidity 86    
Minimum Humidity 44    
Precipitation  
Precipitation 0.00 in 0.12 in 2.39 in (2010)
Month to date precipitation 1.22 2.82  
Year to date precipitation 28.37 26.78  
Snow  
Snow 0.00 in 0.00 in 0.00 in (2002)
Month to date snowfall 0.0 0.0  
Since 1 July snowfall T 0.0  
Snow Depth 0.00 in    
Sea Level Pressure  
Sea Level Pressure 30.00 in    
Wind  
Wind Speed 9 mph (SE)    
Max Wind Speed 18 mph    
Max Gust Speed 23 mph    
Visibility 10 miles    
Events      
T = Trace of Precipitation, MM = Missing Value Source: NWS Daily Summary

Daily Weather History Graph

Daily Weather History Graph

Search for Another Location

Airport:

Trip Planner

Search our weather history database for the weather conditions in past years. The results will help you decide how hot, cold, wet, or windy it might be!

Date:

Astronomy

Sep. 23, 2013 Rise Set
Actual Time 6:53 AM CDT 7:00 PM CDT
Civil Twilight 6:24 AM CDT 7:28 PM CDT
Nautical Twilight 5:51 AM CDT 8:02 PM CDT
Astronomical Twilight 5:16 AM CDT 8:36 PM CDT
Moon 9:22 PM CDT (9/23) 11:22 AM CDT (9/23)
Length of Visible Light 13h 03m
Length of Day
12h 06m
Waning Gibbous, 81% of the Moon is Illuminated
Sep 23
Waning Gibbous
Sep 26
Last Quarter
Oct 4
New
Oct 11
First Quarter
Oct 18
Full

Hourly Weather History & Observations

Time (CDT) Temp. Dew Point Humidity Pressure Visibility Wind Dir Wind Speed Gust Speed Precip Events Conditions
12:53 AM 55.0 °F 46.0 °F 72% 30.00 in 10.0 mi East 6.9 mph - N/A   Clear
1:53 AM 54.0 °F 45.0 °F 72% 30.00 in 10.0 mi ESE 8.1 mph - N/A   Clear
2:53 AM 52.0 °F 45.0 °F 77% 30.01 in 10.0 mi SE 8.1 mph - N/A   Clear
3:53 AM 52.0 °F 46.0 °F 80% 30.01 in 10.0 mi SE 8.1 mph - N/A   Clear
4:53 AM 51.1 °F 46.0 °F 83% 30.02 in 10.0 mi SE 9.2 mph - N/A   Clear
5:53 AM 51.1 °F 46.0 °F 83% 30.02 in 10.0 mi SE 6.9 mph - N/A   Clear
6:53 AM 50.0 °F 46.0 °F 86% 30.04 in 10.0 mi SE 6.9 mph - N/A   Clear
7:53 AM 53.1 °F 46.9 °F 80% 30.05 in 10.0 mi SSE 8.1 mph - N/A   Clear
8:53 AM 55.9 °F 46.9 °F 72% 30.06 in 10.0 mi SE 9.2 mph - N/A   Clear
9:53 AM 59.0 °F 48.0 °F 67% 30.06 in 10.0 mi SSE 11.5 mph - N/A   Clear
10:53 AM 62.1 °F 48.0 °F 60% 30.05 in 10.0 mi SSE 12.7 mph - N/A   Clear
11:53 AM 66.0 °F 48.9 °F 54% 30.04 in 10.0 mi South 8.1 mph - N/A   Clear
12:53 PM 69.1 °F 50.0 °F 51% 30.03 in 10.0 mi South 11.5 mph - N/A   Clear
1:53 PM 71.1 °F 48.9 °F 45% 29.99 in 10.0 mi SSE 16.1 mph 19.6 mph N/A   Clear
2:53 PM 72.0 °F 50.0 °F 46% 29.97 in 10.0 mi SE 11.5 mph 19.6 mph N/A   Clear
3:53 PM 72.0 °F 48.9 °F 44% 29.96 in 10.0 mi SSE 10.4 mph - N/A   Clear
4:53 PM 72.0 °F 50.0 °F 46% 29.96 in 10.0 mi SSE 12.7 mph - N/A   Clear
5:53 PM 70.0 °F 50.0 °F 49% 29.96 in 10.0 mi ESE 11.5 mph - N/A   Clear
6:53 PM 66.9 °F 50.0 °F 54% 29.96 in 10.0 mi ESE 8.1 mph - N/A   Clear
7:53 PM 64.0 °F 51.1 °F 63% 29.97 in 10.0 mi ESE 8.1 mph - N/A   Clear
8:53 PM 62.1 °F 51.1 °F 67% 29.97 in 10.0 mi ESE 9.2 mph - N/A   Clear
9:53 PM 60.1 °F 51.1 °F 72% 29.98 in 10.0 mi ESE 6.9 mph - N/A   Clear
10:53 PM 60.1 °F 50.0 °F 69% 29.99 in 10.0 mi SE 8.1 mph - N/A   Clear
11:53 PM 59.0 °F 48.9 °F 69% 29.99 in 10.0 mi ESE 6.9 mph - N/A   Clear